KC3ECO Weather Reports


time (UTC)temp
F
wind
direction
speed
knots
gust
knots
rain 1hr
in
rain 24hr
in
rain mn
in
humidity
%
barometer
mb
20260505180016 78 258 3.5 7.0 0.00 0.01 0.00 52 1011.2
20260505175016 78 268 3.5 9.6 0.00 0.01 0.00 53 1011.1
20260505174016 77 241 2.6 7.0 0.00 0.01 0.00 53 1011.3
20260505173017 77 250 2.6 8.7 0.00 0.01 0.00 53 1011.4
20260505172017 77 260 2.6 7.0 0.00 0.01 0.00 54 1011.5
20260505171017 77 260 4.3 8.7 0.00 0.01 0.00 54 1011.6
20260505170017 77 269 3.5 7.8 0.00 0.01 0.00 53 1011.8
20260505165018 76 228 2.6 7.0 0.00 0.01 0.00 53 1011.8
20260505164017 76 273 3.5 9.6 0.00 0.01 0.00 54 1012.0
20260505163017 75 63 2.6 7.8 0.00 0.01 0.00 53 1012.1
20260505162018 76 268 4.3 8.7 0.00 0.01 0.00 55 1012.1
20260505161017 76 278 2.6 6.1 0.00 0.01 0.00 54 1012.3
20260505153018 76 201 2.6 6.1 0.00 0.01 0.00 54 1012.3
20260505152018 76 235 2.6 7.0 0.00 0.01 0.00 54 1012.2
20260505151018 76 272 3.5 7.0 0.00 0.01 0.00 51 1012.1
20260505125017 67 281 2.6 4.3 0.00 0.02 0.00 60 1013.1
20260505124017 65 255 1.7 4.3 0.00 0.02 0.00 62 1013.1
20260505123017 65 270 1.7 3.5 0.00 0.02 0.00 64 1013.1
20260505122017 64 273 0.9 2.6 0.00 0.02 0.00 65 1013.1
20260505121017 63 268 1.7 3.5 0.00 0.02 0.00 67 1013.0
20260505120018 62 264 0.9 3.5 0.00 0.02 0.00 68 1012.9
20260505115018 61 283 0.9 1.7 0.00 0.02 0.00 69 1012.7
20260505114018 60 291 0.9 2.6 0.00 0.02 0.00 70 1012.5
20260505113038 59 284 1.7 3.5 0.00 0.02 0.00 73 1012.3
20260505112016 56 278 0.9 2.6 0.00 0.02 0.00 77 1012.4
20260505111056 53 331 0.9 1.7 0.00 0.02 0.00 85 1012.2
20260505102017 52 267 0.9 1.7 0.00 0.02 0.00 88 1011.3
20260505101017 52 79 0.9 2.6 0.00 0.02 0.00 88 1011.2
20260505100017 52 102 0.9 1.7 0.00 0.02 0.00 90 1011.0
20260505095017 52 171 0.0 1.7 0.00 0.02 0.00 90 1011.0
20260505094017 53 341 0.0 1.7 0.00 0.02 0.00 89 1010.9
20260505093038 53 285 0.0 1.7 0.00 0.02 0.00 89 1011.0
20260505092038 53 285 0.9 1.7 0.00 0.02 0.00 89 1010.9
20260505091017 53 77 0.0 0.9 0.00 0.02 0.00 90 1011.0
20260505090017 54 316 0.0 1.7 0.00 0.02 0.00 89 1010.8
20260505085017 54 347 0.0 0.9 0.00 0.02 0.00 89 1010.9
20260505084018 54 155 0.0 0.9 0.00 0.02 0.00 88 1010.9
20260505083018 54 308 0.9 1.7 0.00 0.02 0.00 88 1010.9
20260505082017 55 38 0.0 0.9 0.00 0.02 0.00 88 1011.0
20260505081018 55 6 0.0 1.7 0.00 0.02 0.00 87 1011.0
20260505080019 55 331 0.0 0.9 0.00 0.02 0.00 87 1011.0
20260505075018 56 350 0.0 0.9 0.00 0.02 0.00 85 1011.0
20260505074018 57 321 0.0 1.7 0.00 0.02 0.00 85 1010.9
20260505073016 58 274 0.0 1.7 0.00 0.02 0.00 84 1010.9
20260505072016 58 306 0.0 0.9 0.00 0.02 0.00 83 1010.9
20260505071017 58 295 0.9 2.6 0.00 0.02 0.00 83 1010.9
20260505070016 58 290 0.9 1.7 0.00 0.02 0.00 82 1011.0
20260505065016 58 301 0.9 2.6 0.00 0.02 0.00 82 1011.0
20260505064016 58 289 0.0 0.9 0.00 0.02 0.00 81 1010.9
20260505063016 58 297 0.0 1.7 0.00 0.02 0.00 80 1011.0
20260505062017 58 279 0.9 2.6 0.00 0.02 0.00 82 1011.0
20260505061017 58 312 0.0 0.9 0.00 0.02 0.00 81 1010.9
20260505060017 59 337 0.0 0.9 0.00 0.02 0.00 80 1010.8
20260505055017 59 317 0.9 2.6 0.00 0.02 0.00 80 1011.0
20260505054017 59 287 0.9 2.6 0.00 0.02 0.00 79 1011.1
20260505053057 59 308 0.9 2.6 0.00 0.02 0.00 79 1011.1
20260505052038 60 308 0.9 1.7 0.00 0.02 0.00 79 1011.2
20260505051018 60 292 0.9 2.6 0.00 0.02 0.00 78 1011.2
20260505041015 61 325 0.9 2.6 0.00 0.02 0.00 73 1010.7
20260505040116 61 291 0.9 2.6 0.00 0.02 0.00 71 1010.7
20260505035036 62 234 0.9 3.5 0.00 0.02 0.02 70 1010.6
20260505034016 62 253 0.9 5.2 0.00 0.02 0.02 69 1010.7
20260505033016 62 253 0.9 5.2 0.00 0.02 0.02 67 1010.8
20260505032016 62 269 0.9 5.2 0.00 0.02 0.02 66 1010.8
20260505031016 62 289 1.7 3.5 0.00 0.02 0.02 66 1010.8
20260505030036 62 253 1.7 6.1 0.00 0.02 0.02 65 1010.8
20260505025016 63 222 0.9 4.3 0.00 0.02 0.02 64 1010.8
20260505024016 62 264 0.9 3.5 0.00 0.02 0.02 65 1010.7
20260505023037 62 357 0.9 1.7 0.00 0.02 0.02 65 1010.7
20260505022017 63 312 0.9 2.6 0.00 0.02 0.02 64 1010.6
20260505021017 63 281 0.9 1.7 0.00 0.02 0.02 64 1010.7
20260505020017 63 286 0.9 2.6 0.00 0.02 0.02 63 1010.8
20260505015017 63 297 0.9 2.6 0.00 0.02 0.02 63 1010.7
20260505014017 63 297 0.9 3.5 0.00 0.02 0.02 62 1010.6
20260505013018 63 274 1.7 5.2 0.00 0.02 0.02 62 1010.5
20260505012037 63 287 0.9 2.6 0.00 0.02 0.02 60 1010.4
20260505011018 64 202 0.9 2.6 0.00 0.02 0.02 59 1010.2
20260505010018 64 349 0.9 2.6 0.00 0.02 0.02 58 1010.2
20260505005038 64 275 0.9 3.5 0.00 0.02 0.02 57 1010.2
20260505004018 65 323 0.9 2.6 0.00 0.02 0.02 56 1010.1
20260505003038 65 273 1.7 3.5 0.00 0.02 0.02 55 1010.1
20260505002018 65 252 0.9 3.5 0.00 0.02 0.02 55 1010.1
20260505001016 66 278 1.7 3.5 0.00 0.02 0.02 54 1010.0
20260505000015 66 244 0.9 2.6 0.00 0.02 0.02 53 1010.0
20260504235018 67 289 2.6 7.0 0.00 0.02 0.02 52 1010.1
20260504234016 67 263 2.6 6.1 0.00 0.02 0.02 50 1010.1
20260504233016 68 274 2.6 6.1 0.00 0.02 0.02 50 1010.1
20260504232016 68 252 1.7 7.0 0.00 0.02 0.02 48 1010.0
20260504231016 69 260 3.5 8.7 0.00 0.02 0.02 47 1010.1
20260504230017 70 281 1.7 5.2 0.00 0.02 0.02 47 1010.1
20260504225016 70 266 2.6 6.1 0.00 0.02 0.02 46 1010.0
20260504224016 71 171 1.7 10.4 0.00 0.02 0.02 44 1010.0
20260504223017 71 271 2.6 7.8 0.00 0.02 0.02 44 1010.2
20260504222017 72 271 3.5 7.8 0.00 0.02 0.02 43 1010.1
20260504221017 72 134 3.5 13.0 0.00 0.02 0.02 42 1010.1
20260504220017 72 265 1.7 5.2 0.00 0.02 0.02 43 1010.1
20260504215017 72 263 2.6 6.1 0.00 0.02 0.02 41 1010.2
20260504214018 73 264 3.5 10.4 0.00 0.02 0.02 42 1010.3
20260504213018 73 267 2.6 7.8 0.00 0.02 0.02 41 1010.3
20260504212017 73 261 3.5 7.0 0.00 0.02 0.02 43 1010.2
20260504211018 73 224 2.6 7.8 0.00 0.02 0.02 41 1010.3
20260504210038 73 270 3.5 7.8 0.00 0.02 0.02 41 1010.3
20260504205018 73 244 2.6 7.0 0.00 0.02 0.02 41 1010.5
20260504204018 73 254 2.6 6.1 0.00 0.02 0.02 43 1010.5
20260504203018 73 264 2.6 5.2 0.00 0.03 0.02 42 1010.5
20260504202020 72 123 3.5 9.6 0.00 0.03 0.02 42 1010.6
20260504201056 72 258 3.5 8.7 0.00 0.03 0.02 42 1010.8
20260504200016 72 268 3.5 7.0 0.00 0.03 0.02 43 1011.0
20260504195056 72 211 3.5 7.8 0.00 0.03 0.02 42 1011.1
20260504194016 72 276 4.3 9.6 0.00 0.03 0.02 42 1011.2
20260504193016 72 86 3.5 9.6 0.00 0.03 0.02 43 1011.4
20260504192016 72 115 2.6 7.8 0.00 0.03 0.02 42 1011.6
20260504191016 72 265 2.6 7.0 0.00 0.03 0.02 42 1011.8
20260504190016 72 174 3.5 8.7 0.01 0.03 0.02 40 1011.8
20260504185017 72 262 3.5 7.0 0.01 0.03 0.02 42 1012.0
20260504184041 72 281 4.3 10.4 0.01 0.03 0.02 44 1012.0
20260504183017 72 299 2.6 7.8 0.01 0.03 0.02 44 1012.1
20260504182017 72 255 2.6 6.1 0.01 0.03 0.02 44 1012.1
20260504181017 71 124 2.6 7.8 0.01 0.03 0.02 43 1012.1